Weather History for LIPZ - October, 2013

Change the Weather History Date:

Wednesday, October 9, 2013

  Actual Average Record
Temperature  
Mean Temperature 60 °F -  
Max Temperature 64 °F 61 °F 73 °F (1997)
Min Temperature 55 °F 46 °F 44 °F (2011)
Degree Days  
Heating Degree Days 6    
Growing Degree Days 10 (Base 50)    
Moisture  
Dew Point 54 °F    
Average Humidity 81    
Maximum Humidity 100    
Minimum Humidity 68    
Precipitation  
Precipitation 0.00 in 0.10 in - ()
Sea Level Pressure  
Sea Level Pressure 30.05 in    
Wind  
Wind Speed 3 mph ()    
Max Wind Speed 6 mph    
Max Gust Speed -    
Visibility 5.2 miles    
Events      
Averages and records for this station are not official NWS values.
T = Trace of Precipitation, MM = Missing Value Source: Averaged Metar Reports

Daily Weather History Graph

Daily Weather History Graph

Search for Another Location

Airport or City:

Trip Planner

Search our weather history database for the weather conditions in past years. The results will help you decide how hot, cold, wet, or windy it might be!

Date:

Astronomy

Oct. 09, 2013 Rise Set
Actual Time 7:18 AM CEST 6:35 PM CEST
Civil Twilight 6:49 AM CEST 7:05 PM CEST
Nautical Twilight 6:15 AM CEST 7:39 PM CEST
Astronomical Twilight 5:40 AM CEST 8:14 PM CEST
Moon 12:09 PM CEST (10/9) 9:41 PM CEST (10/9)
Length of Visible Light 12h 16m
Length of Day
11h 16m
Waxing Crescent, 22% of the Moon is Illuminated
Oct 9
Waxing Crescent
Oct 12
First Quarter
Oct 19
Full
Oct 27
Last Quarter
Nov 3
New

Hourly Weather History & Observations

Time (CEST) Temp. Dew Point Humidity Pressure Visibility Wind Dir Wind Speed Gust Speed Precip Events Conditions
12:20 AM 57.2 °F 57.2 °F 100% 30.15 in 3.7 mi NNW 5.8 mph - N/A   Scattered Clouds
12:50 AM 57.2 °F 55.4 °F 94% 30.15 in 3.7 mi NNW 4.6 mph - N/A   Mostly Cloudy
1:20 AM 57.2 °F 53.6 °F 88% 30.15 in 3.7 mi North 4.6 mph - N/A   Mostly Cloudy
1:50 AM 57.2 °F 53.6 °F 88% 30.15 in 3.7 mi NNW 4.6 mph - N/A   Mostly Cloudy
2:20 AM 59.0 °F 53.6 °F 82% 30.15 in 4.3 mi North 4.6 mph - N/A   Mostly Cloudy
2:50 AM 57.2 °F 53.6 °F 88% 30.15 in 4.3 mi NNW 4.6 mph - N/A   Mostly Cloudy
3:20 AM 57.2 °F 53.6 °F 88% 30.12 in 5.0 mi Variable 3.5 mph - N/A   Scattered Clouds
3:50 AM 57.2 °F 53.6 °F 88% 30.12 in 5.0 mi Variable 3.5 mph - N/A   Scattered Clouds
4:20 AM 57.2 °F 53.6 °F 88% - 5.0 mi Variable 3.5 mph - N/A   Scattered Clouds
4:50 AM 57.2 °F 53.6 °F 88% - 5.0 mi Variable 3.5 mph - N/A   Scattered Clouds
5:20 AM 57.2 °F 55.4 °F 94% - 5.0 mi Variable 3.5 mph - N/A   Scattered Clouds
5:50 AM 57.2 °F 53.6 °F 88% - 5.0 mi Variable 2.3 mph - N/A   Mostly Cloudy
6:20 AM 57.2 °F 53.6 °F 88% - 4.3 mi Variable 2.3 mph - N/A   Scattered Clouds
6:50 AM 57.2 °F 53.6 °F 88% - 3.7 mi NW 4.6 mph - N/A   Scattered Clouds
7:20 AM 57.2 °F 53.6 °F 88% - 4.3 mi Variable 3.5 mph - N/A   Scattered Clouds
7:50 AM 57.2 °F 51.8 °F 82% - 4.3 mi Variable 3.5 mph - N/A   Scattered Clouds
8:20 AM 55.4 °F 51.8 °F 88% - 5.0 mi Variable 1.2 mph - N/A   Scattered Clouds
8:50 AM 55.4 °F 51.8 °F 88% - 5.0 mi Variable 2.3 mph - N/A   Scattered Clouds
9:20 AM 57.2 °F 53.6 °F 88% - 5.0 mi Variable 1.2 mph - N/A   Scattered Clouds
9:50 AM 59.0 °F 53.6 °F 82% - 5.6 mi Variable 2.3 mph - N/A   Mostly Cloudy
10:20 AM 60.8 °F 53.6 °F 77% - 6.2 mi Variable 2.3 mph - N/A   Mostly Cloudy
10:50 AM 60.8 °F 51.8 °F 72% - 6.2 mi Variable 2.3 mph - N/A   Mostly Cloudy
11:20 AM 62.6 °F 53.6 °F 72% - 6.2 mi Variable 1.2 mph - N/A   Mostly Cloudy
11:50 AM 62.6 °F 53.6 °F 72% - 6.2 mi Variable 1.2 mph - N/A   Mostly Cloudy
12:20 PM 62.6 °F 51.8 °F 68% - 6.2 mi Variable 1.2 mph - N/A   Mostly Cloudy
12:50 PM 64.4 °F 53.6 °F 68% - 6.2 mi Calm Calm - N/A   Mostly Cloudy
1:20 PM 64.4 °F 53.6 °F 68% - 6.2 mi Calm Calm - N/A   Mostly Cloudy
1:50 PM 64.4 °F 53.6 °F 68% - 6.2 mi Variable 2.3 mph - N/A   Mostly Cloudy
2:20 PM 64.4 °F 53.6 °F 68% - 6.2 mi Variable 2.3 mph - N/A   Mostly Cloudy
2:50 PM 64.4 °F 53.6 °F 68% - 6.2 mi Variable 2.3 mph - N/A   Mostly Cloudy
3:20 PM 64.4 °F 53.6 °F 68% - 6.2 mi Variable 2.3 mph - N/A   Mostly Cloudy
3:50 PM 64.4 °F 53.6 °F 68% 30.04 in 6.2 mi Variable 2.3 mph - N/A   Scattered Clouds
4:20 PM 64.4 °F 53.6 °F 68% 30.04 in 6.2 mi Variable 2.3 mph - N/A   Scattered Clouds
4:50 PM 64.4 °F 55.4 °F 73% 30.01 in 5.6 mi Variable 2.3 mph - N/A   Scattered Clouds
5:20 PM 64.4 °F 55.4 °F 73% 30.01 in 5.6 mi Variable 2.3 mph - N/A   Scattered Clouds
5:50 PM 62.6 °F 53.6 °F 72% 30.01 in 5.6 mi Variable 2.3 mph - N/A   Scattered Clouds
6:20 PM 62.6 °F 53.6 °F 72% 30.01 in 5.6 mi Variable 1.2 mph - N/A   Scattered Clouds
6:50 PM 60.8 °F 51.8 °F 72% 30.01 in 5.6 mi Variable 2.3 mph - N/A   Scattered Clouds
7:20 PM 60.8 °F 53.6 °F 77% 30.01 in 5.6 mi Variable 2.3 mph - N/A   Mostly Cloudy
7:50 PM 60.8 °F 53.6 °F 77% 30.01 in 5.6 mi Variable 1.2 mph - N/A   Mostly Cloudy
8:20 PM 60.8 °F 53.6 °F 77% 30.01 in 5.6 mi Calm Calm - N/A   Scattered Clouds
8:50 PM 59.0 °F 53.6 °F 82% 30.01 in 5.6 mi Calm Calm - N/A   Partly Cloudy
9:20 PM 59.0 °F 53.6 °F 82% 30.01 in 5.6 mi Variable 1.2 mph - N/A   Partly Cloudy
9:50 PM 57.2 °F 53.6 °F 88% 29.98 in 5.0 mi Variable 2.3 mph - N/A   Partly Cloudy
10:20 PM 59.0 °F 55.4 °F 88% 30.01 in 5.0 mi Variable 2.3 mph - N/A   Scattered Clouds
10:50 PM 59.0 °F 55.4 °F 88% 30.01 in 5.0 mi Variable 1.2 mph - N/A   Mostly Cloudy
11:20 PM 59.0 °F 55.4 °F 88% 29.98 in 4.3 mi Calm Calm - N/A   Mostly Cloudy
11:50 PM 57.2 °F 55.4 °F 94% 29.98 in 4.3 mi Variable 2.3 mph - N/A   Mostly Cloudy